USTRANSCOM 7583


KNGU
Norfolk Naval Station (Chambers Field)
Norfolk, Virginia, US
MUGM
Guantánamo Bay Naval Air Station
Guantanamo, , CU

Activity Log

Date Flight Route Aircraft Duration
12/22/2019 CMB7583 SWOPE ECG DIW IDOLS Y323 CARPX AR3 NUCAR Y374 RUMFO ZIN EASTP SOUTP SOUTP2 B752 3h 08m

Route Details

Aircraft Information
Primary: Boeing 757-200SF
Backup: Not Available
Route Data
Distance: 1025.27nm
Sched. Duration: 3h 29m
Avg. Duration: 3h 08m (-22m)
Times Flown: 1
Recm'd Route: SWOPE ECG DIW IDOLS Y323 CARPX AR3 NUCAR Y374 RUMFO ZIN EASTP SOUTP SOUTP2
Planned Altitude: 37,000ft
Origin Wx: KNGU 250059Z 09004KT 10SM BKN046 23/18 A2998 RMK AO2 SLP150 T02280178 $
Dest. Wx: MUGM 250051Z 00000KT 10SM FEW025 BKN280 28/25 A2991 RMK AO2 SLP130 T02780250 $
Notes: USTRANSCOM CONTRACT FLIGHT | OVERFLIGHT OF CUBA PROHIBITED | SOUTP & EASTP FIXES MANDATORY

Financial History
Total Freight: 53,079lbs
Average Load: 53,079lbs/flt
Fuel Used: 25,011lbs
Avg. Fuel Used: 25,011lbs/flt
Fuel Expense: $23,760
Avg. Fuel Expense: $23,760
Avg. Fuel Cost: $0.95/lbs
Total Gross Income: $87,050
Pilot Pay: $229
Total Expenses: $9,453
Total Revenue: $53,118
Average Revenue: $87,049.56